Regional Weather Roundup
Issued by NWS

Home | Current Version | Previous Version | Text Only | Print | Product List | Glossary On
Versions: 1 2 3 4 5 6 7 8 9 10 11 12 13 14 15 16 17 18 19 20 21 22 23 24 25 26 27 28 29 30 31 32 33 34 35 36 37 38 39 40 41 42 43 44 45 46 47 48 49 50
000
ASUS43 KLMK 230602
RWRKY
KENTUCKY REGIONAL WEATHER ROUNDUP
NATIONAL WEATHER SERVICE LOUISVILLE KY
200 AM EDT SAT SEP 23 2017

NOTE "FAIR" INDICATES FEW OR NO CLOUDS BELOW 12,000 FEET
WITH NO SIGNIFICANT WEATHER AND/OR OBSTRUCTIONS TO VISIBILITY.

KYZ001>023-026-027-061>063-070>075-230700-
WESTERN AND SOUTH CENTRAL KENTUCKY

CITY           SKY/WX    TMP DP  RH WIND       PRES   REMARKS
PADUCAH        CLEAR     70  66  87 CALM      30.00S
HENDERSON      CLEAR     67  66  97 MISG      30.03S
OWENSBORO      CLEAR     72  70  93 CALM      30.03S
HOPKINSVILLE   NOT AVBL
BOWLING GREEN  CLEAR     71  70  96 CALM      30.04S
GLASGOW        NOT AVBL
$$

KYZ024-025-028>034-038-045-046-053-230700-
NORTH CENTRAL KENTUCKY

CITY           SKY/WX    TMP DP  RH WIND       PRES   REMARKS
LOUISVILLE/SDF CLEAR     75  67  76 SE3       30.05S
LOUISVILLE/LOU CLEAR     70  68  93 CALM      30.06S
FORT KNOX      CLEAR     68  66  93 CALM      30.04S
$$

KYZ035>037-039>044-047>052-055>060-089>105-230700-
NORTHEAST KENTUCKY

CITY           SKY/WX    TMP DP  RH WIND       PRES   REMARKS
LEXINGTON      CLEAR     67  62  84 SE5       30.07F
COVINGTON      CLEAR     66  66 100 S3        30.08S
FRANKFORT      CLEAR     65  62  90 CALM      30.06S
$$

KYZ054-064>069-076>088-106>120-230700-
SOUTHEAST KENTUCKY

CITY           SKY/WX    TMP DP  RH WIND       PRES   REMARKS
JACKSON        CLEAR     67  64  90 CALM      30.09S
LONDON         CLEAR     65  62  90 CALM      30.08S
SOMERSET       NOT AVBL
MIDDLESBORO    PTCLDY    64  64 100 CALM      30.09S
MONTICELLO     CLEAR     63  62  97 NE9       30.09R
$$





USA.gov is the U.S. government's official web portal to all federal, state and local government web resources and services.